SCP
-0 -0 0 0 0 -0 -0 -0 -0 -0 0 0 0 0 0 0 0 0 0 -0 -0 0 0 0 0 0 -0 -0 -0 -0 -0 -0 -0 -0 -0 -0 -0 -0 -0 -0 -0 -0 -0 -0 -0 0 -0 0 0
0 0 0 0 0 0 -0 -0 0 -0 -0 0 0 0 0 0 0 0 0 -0 -0 -0 0 0 -0 -0 -0 -0 0 0 -0 -0 -0 -0 -0 -0 -0 -0 -0 -0 -0 -0 -0 -0 -0 -0 0 0 0
0 0 0 0 0 0 0 -0 0 -0 -0 -0 -0 0 -0 0 0 -0 -0 -0 -0 -0 -0 -0 -0 -0 -0 -0 -0 -0 -0 -0 -0 -0 -0 -0 -0 -0 -0 -0 -0 -0 -0 -0 -0 -0 -0 0 0
0 0 0 0 0 0 0 -0 -0 0 -0 -0 -0 0 0 0 -0 -0 -0 -0 -0 -0 -0 -0 -0 -0 -0 -0 -0 -0 -0 -0 -0 -0 -0 -0 -0 -0 -0 -0 -0 -0 -0 -0 -0 -0 -0 0 0
0 0 0 0 0 0 -0 -0 0 -0 -0 -0 -0 -0 -0 -0 0 -0 -0 -0 -0 -0 -0 -0 -0 -0 -0 -0 -0 -0 -0 -0 -0 -0 -0 -0 -0 -0 -0 -0 -0 -0 -0 -0 -0 -0 -0 0 0
0 0 0 0 0 0 -0 -0 0 0 -0 0 0 0 -0 0 -0 -0 -0 -0 -0 -0 -0 -0 -0 -0 -0 -0 -0 -0 -0 -0 -0 -0 -0 -0 -0 -0 -0 -0 -0 -0 0 0 0 0 0 0 0
0 0 0 0 0 0 0 0 0 0 0 -0 0 0 0 -0 -0 -0 -0 -0 -0 -0 -0 -0 -0 -0 -0 -0 -0 -0 -0 -0 -0 -0 0 0 0 -0 -0 -0 -0 0 0 0 0 0 0 0 0
0 0 0 0 0 0 0 0 0 0 0 0 0 0 0 -0 -0 -0 -0 -0 -0 -0 -0 -0 -0 -0 -0 -0 -0 -0 -0 -0 -0 -0 0 0 0 0 -0 -0 -0 -0 0 0 0 0 0 0 0
0 0 0 0 0 0 0 0 0 0 0 0 0 0 0 -0 0 0 0 0 -0 -0 -0 -0 0 0 0 0 0 -0 -0 -0 -0 -0 -0 0 0 0 0 -0 -0 -0 -0 -0 0 0 0 0 0
0 0 0 0 0 0 0 0 0 0 0 0 0 0 0 0 0 0 0 0 0 -0 0 -0 -0 0 0 0 0 0 0 0 0 0 0 0 0 0 0 0 -0 -0 -0 -0 0 0 0 0 0
0 0 0 0 0 0 0 0 0 0 0 0 0 0 0 0 0 0 0 0 -0 0 0 -0 0 0 0 0 0 0 0 0 0 0 0 0 0 0 0 0 0 0 0 0 0 0 0 0 0
0 0 0 0 0 0 0 0 0 0 0 0 0 0 0 0 0 0 0 0 0 0 0 0 0 0 0 0 0 0 0 0 0 0 0 0 0 0 0 0 0 0 0 0 0 0 0 0 0
0 0 0 0 0 0 0 0 0 0 0 0 0 0 0 0 0 0 0 0 0 0 0 0 0 0 0 0 0 0 0 0 0 0 0 0 0 0 0 0 0 0 0 0 0 0 0 0 0
0 0 0 0 0 0 0 0 0 0 0 0 0 0 0 0 0 0 0 0 0 0 0 0 0 0 0 0 0 0 0 0 0 0 0 0 0 0 0 0 0 0 0 0 0 0 0 0 0
0 0 0 0 0 0 0 0 0 0 0 0 0 0 0 0 0 0 0 0 0 0 0 0 0 0 0 0 0 0 0 0 0 0 0 0 0 0 0 0 0 0 0 0 0 0 0 0 0
0 0 0 0 0 0 0 0 0 0 0 0 0 0 0 0 0 0 0 0 0 0 0 0 0 0 0 0 0 0 0 0 0 0 0 0 0 0 0 0 0 0 0 0 0 0 0 0 0
0 0 0 0 0 0 0 0 0 0 0 0 0 0 0 0 0 0 0 0 0 0 0 0 0 0 0 0 0 0 0 0 0 0 0 0 0 0 0 0 0 0 0 0 0 0 0 0 0
0 0 0 0 0 0 0 0 0 0 0 0 0 0 0 0 0 0 0 0 0 0 0 0 0 0 0 0 0 0 0 0 0 0 0 0 0 0 0 0 0 0 0 0 0 0 0 0 0
0 0 0 0 0 0 0 0 0 0 0 0 0 0 0 0 0 0 0 0 0 0 0 0 0 0 0 0 0 0 0 0 0 0 0 0 0 0 0 0 0 0 0 0 0 0 0 0 0
0 0 0 0 0 0 0 0 0 0 0 0 0 0 0 0 0 0 0 0 0 0 0 0 0 0 0 0 0 0 0 0 0 0 0 0 0 0 0 0 0 0 0 0 0 0 0 0 0
0 0 0 0 0 0 0 0 0 0 0 0 0 0 0 0 0 0 0 0 0 0 0 0 0 0 0 0 0 0 0 0 0 0 0 0 0 0 0 0 0 0 0 0 0 0 0 0 0
0 0 0 0 0 0 0 0 0 0 0 0 0 0 0 0 0 0 0 0 0 0 0 0 0 0 0 0 0 0 0 0 0 0 0 0 0 0 0 0 0 0 0 0 0 0 0 0 0
0 0 0 0 0 0 0 0 -0 0 0 0 0 0 0 0 0 0 0 0 0 0 0 0 0 0 0 0 0 0 0 0 0 0 0 0 0 0 0 0 0 0 0 0 0 0 0 0 0
0 0 0 0 0 0 0 0 -0 0 0 0 0 0 0 0 0 0 0 0 0 0 0 0 0 0 0 0 0 0 0 0 0 0 0 0 0 0 0 0 0 0 0 0 0 0 0 0 0
0 0 0 0 0 0 0 0 0 0 -0 0 0 0 0 0 0 0 0 0 0 0 0 0 0 0 0 0 0 0 0 0 0 0 0 0 0 0 0 0 0 0 0 0 0 0 0 0 0
0 0 0 0 0 0 0 0 0 -0 -0 0 0 0 0 0 0 0 0 0 0 0 0 0 0 0 0 0 0 0 0 0 0 0 0 0 0 0 0 0 0 0 0 0 0 0 0 0 0
0 0 0 0 0 0 0 0 0 0 0 0 0 0 0 0 0 0 0 0 0 0 0 0 0 0 0 0 0 0 0 0 0 0 0 0 0 0 0 0 0 0 0 0 0 0 0 0 0
0 0 0 0 0 0 0 0 0 0 0 0 0 0 0 0 0 0 0 0 0 0 0 0 0 0 0 0 0 0 0 0 0 0 0 0 0 0 0 0 0 0 0 0 0 0 0 0 0
0 0 0 0 0 0 0 0 0 0 0 0 0 0 0 0 0 0 0 0 0 0 0 0 0 0 0 0 0 0 0 0 0 0 0 0 0 0 0 0 0 0 0 0 0 0 0 0 0
0 0 0 0 0 0 0 0 0 0 0 0 0 0 0 0 0 0 0 0 0 0 0 0 0 0 0 0 0 0 0 0 0 0 0 0 0 0 0 0 0 0 0 0 0 0 0 0 0
Wind_Speed_500mb
39 38 18 4 8 10 3 6 8 6 3 9 11 17 17 10 2 5 32 36 22 36 36 36 33 28 25 20 16 16 16 20 23 29 30 32 27 25 28 27 28 31 30 29 35 36 34 33 32
43 33 8 6 9 6 6 2 11 8 14 25 24 19 9 4 8 20 39 29 28 38 40 37 34 28 24 19 16 17 17 20 22 27 35 23 33 25 18 21 25 29 28 29 32 34 32 28 28
37 19 7 8 6 8 8 5 10 15 18 10 8 16 6 7 13 38 29 39 32 39 39 36 32 28 25 22 18 16 16 19 24 28 35 31 32 32 19 20 23 27 28 29 30 31 30 27 24
28 7 7 8 2 2 14 12 13 15 9 7 18 12 8 7 27 26 29 35 38 42 40 36 31 28 26 22 19 17 17 19 22 25 34 29 20 27 23 18 23 26 28 28 29 30 29 26 23
16 7 8 6 6 4 4 27 28 10 12 12 10 6 8 23 11 23 33 37 39 44 42 38 31 28 26 24 21 18 18 18 18 22 27 28 23 21 23 19 20 21 25 27 27 28 27 24 19
8 4 9 4 7 2 6 27 24 14 16 16 13 13 9 18 20 24 35 35 33 41 44 40 33 29 27 24 21 19 17 17 17 18 20 27 29 24 20 18 16 17 21 25 26 26 24 22 17
8 6 5 4 5 3 6 23 23 17 18 13 26 9 13 24 19 29 36 32 33 33 40 41 37 33 29 26 22 20 18 19 18 19 19 22 25 23 20 20 18 18 21 24 24 24 22 20 17
5 8 1 3 2 6 4 6 14 18 7 18 14 13 13 36 33 40 37 33 32 32 36 41 39 36 34 31 28 24 22 20 21 21 20 20 20 21 23 22 24 23 23 23 24 24 22 20 18
2 7 4 4 2 5 2 3 8 11 17 8 7 12 7 34 46 49 45 41 38 37 35 44 43 40 37 35 32 28 26 23 22 23 22 21 20 22 23 20 19 24 25 25 25 24 23 22 21
6 7 16 3 0 2 6 1 10 9 10 5 8 12 24 35 47 55 54 52 48 44 41 43 47 45 42 41 38 35 32 29 26 24 22 23 23 23 24 24 23 25 29 29 27 26 26 26 24
8 10 7 2 5 3 4 7 5 13 4 13 16 28 34 34 40 47 50 47 42 40 40 42 46 47 47 47 45 43 40 36 32 29 25 24 28 29 28 29 28 28 31 32 31 30 28 28 28
4 11 8 2 4 5 4 3 2 3 8 8 4 25 34 35 40 44 48 49 46 44 42 41 44 44 47 49 51 49 46 43 40 35 31 31 33 34 31 30 30 30 32 33 32 32 31 32 32
3 5 7 5 2 7 10 9 7 14 15 2 5 27 29 30 35 39 41 43 47 51 46 45 45 47 46 47 47 47 47 46 43 41 38 38 37 38 35 33 34 34 35 36 36 36 37 36 36
2 1 10 7 4 12 10 8 7 9 26 10 20 27 30 32 27 31 41 46 51 50 51 46 49 48 49 51 47 45 45 43 43 44 44 42 42 39 40 38 39 40 39 40 40 41 42 42 42
4 2 9 8 7 10 14 11 20 33 36 38 29 28 38 42 39 42 36 39 41 44 46 52 50 47 51 54 53 51 49 49 48 46 45 45 45 44 42 42 43 43 43 43 46 47 48 49 49
2 5 1 6 11 11 19 16 24 26 30 33 38 46 44 47 55 51 48 46 43 44 46 47 52 55 51 52 56 55 55 54 53 51 49 49 48 48 49 46 46 45 47 49 52 53 54 56 55
7 7 9 11 10 7 13 10 19 25 30 21 21 24 34 41 53 62 59 56 52 48 48 49 51 56 56 55 55 58 58 59 57 58 58 56 54 53 55 55 51 50 52 56 57 59 60 61 60
12 7 8 9 3 3 11 12 19 19 17 30 36 43 42 44 51 51 61 70 71 65 63 56 52 52 53 56 56 58 59 61 63 65 67 65 62 61 61 62 62 58 60 61 62 65 64 67 64
11 6 4 6 2 6 10 10 21 43 32 41 51 61 65 64 61 53 42 34 25 56 73 68 59 54 53 55 59 62 65 63 64 66 68 71 69 68 68 70 70 67 69 70 68 69 71 73 71
5 3 10 9 4 7 10 18 19 41 31 51 64 70 80 79 76 71 55 49 41 28 32 62 67 64 57 53 52 54 55 57 57 63 68 70 73 74 74 76 79 77 77 78 79 78 80 81 78
12 13 8 10 12 5 7 13 12 21 45 51 75 79 74 79 76 72 73 59 43 41 38 41 49 59 57 54 57 60 63 62 61 65 66 66 70 76 79 79 80 84 84 88 88 88 87 91 88
14 14 12 6 3 7 6 11 12 17 22 18 58 60 64 55 54 57 57 58 54 43 32 27 42 59 64 66 67 65 62 61 58 59 57 59 61 67 75 79 82 86 90 93 95 96 95 95 100
10 12 12 7 5 4 6 6 12 10 18 36 54 65 60 58 45 33 32 38 45 45 21 16 13 9 13 26 47 60 72 73 68 68 71 70 70 69 70 73 76 80 88 93 94 99 103 103 105
13 12 13 9 5 7 18 16 8 12 20 13 29 51 36 26 26 14 21 28 31 23 17 13 14 11 12 18 23 34 45 53 62 66 70 70 71 74 76 78 79 81 82 89 93 95 103 106 110
7 15 3 5 0 14 2 13 13 16 23 13 16 14 17 28 40 39 35 27 21 17 9 6 14 18 16 18 20 23 31 39 48 55 63 67 71 73 75 79 83 84 85 86 89 94 102 106 110
21 20 11 15 9 7 7 15 12 22 40 31 23 22 38 42 38 34 28 23 9 4 7 9 14 20 22 24 29 32 36 42 48 50 54 60 68 73 75 79 84 87 88 89 93 98 104 108 116
10 21 13 8 5 4 9 14 18 18 15 15 33 42 42 35 38 36 19 8 6 5 4 9 16 23 29 31 34 38 40 42 44 49 55 64 70 75 80 87 92 91 91 93 95 100 103 107 106
12 16 6 4 3 8 11 11 15 2 15 11 21 37 39 44 39 22 7 10 5 4 10 20 24 21 25 28 30 35 40 43 47 51 56 62 68 74 78 80 83 86 89 94 101 106 109 112 115
10 10 8 11 10 9 4 12 15 29 15 17 15 36 43 40 23 9 14 17 11 12 17 19 21 22 25 30 34 37 38 41 43 49 52 55 59 63 71 75 82 87 88 93 100 108 108 109 114
27 13 20 10 8 8 2 21 10 16 18 31 44 45 41 29 5 12 20 14 14 17 20 24 23 27 30 35 39 43 47 51 55 56 57 59 61 62 64 67 77 85 96 96 92 103 113 116 115
Wind_Direction_500mb
339 338 341 79 59 66 164 186 155 140 70 109 74 101 119 83 106 196 142 162 174 172 164 161 161 160 157 149 143 137 138 141 133 121 120 124 135 120 116 110 116 112 117 111 110 118 110 108 104
337 337 4 75 84 71 276 272 144 177 147 115 106 110 53 111 136 149 155 167 176 172 165 166 166 163 161 157 154 148 149 149 142 130 126 131 122 116 117 119 115 118 117 114 115 118 118 116 104
331 347 16 85 110 162 170 185 163 133 134 125 99 98 97 134 165 157 168 167 175 174 170 169 169 170 168 168 163 158 153 155 149 139 145 141 139 138 132 131 129 126 124 123 122 127 129 124 113
334 358 50 76 341 257 156 171 166 126 119 113 126 69 86 186 155 173 168 173 172 174 172 175 173 175 174 173 168 166 164 164 160 149 151 141 142 144 148 144 139 137 134 131 132 135 138 136 132
341 17 43 55 337 5 79 163 152 136 145 131 139 151 99 148 159 187 179 176 177 176 176 179 181 181 179 178 173 174 172 169 161 160 153 143 158 153 160 155 144 141 142 139 139 141 145 144 141
21 35 58 30 320 244 166 167 150 143 151 145 112 114 163 178 188 189 185 179 180 182 181 184 186 188 187 183 182 183 183 172 173 168 164 155 159 171 177 191 182 159 154 149 149 151 153 153 148
99 73 167 232 252 247 197 166 152 159 155 164 154 100 160 173 189 193 190 187 184 190 191 191 191 192 194 194 193 194 195 190 186 179 182 178 178 172 176 184 189 179 172 163 160 162 164 162 161
104 97 232 247 291 246 221 114 128 152 172 134 167 169 189 186 182 186 191 198 200 199 204 202 199 200 200 201 203 204 209 206 204 200 197 194 194 195 186 192 192 187 182 176 172 173 175 175 179
149 72 197 245 293 274 316 117 93 113 134 128 138 163 189 170 175 182 190 201 209 211 208 209 208 208 210 212 213 216 220 220 212 212 215 212 208 206 212 214 200 193 189 188 185 184 187 188 194
115 139 209 232 152 27 10 306 131 141 132 80 144 158 157 168 179 189 197 202 209 211 209 212 212 214 216 218 220 225 229 231 225 220 225 226 220 220 218 222 222 206 203 196 196 198 200 200 205
173 185 211 289 127 7 29 18 337 135 89 194 211 173 172 180 190 199 205 214 219 216 216 218 217 220 223 225 225 226 230 235 235 234 236 238 232 229 224 221 223 219 212 209 205 209 211 212 213
209 234 250 336 258 172 174 308 345 310 139 106 35 200 181 193 204 207 212 217 222 227 229 227 224 224 228 231 234 233 232 235 239 242 244 244 242 237 232 228 228 226 224 222 220 220 219 222 222
205 267 251 249 221 259 195 192 242 253 184 198 176 191 200 207 215 219 224 227 229 231 235 237 235 232 231 235 237 234 234 236 241 245 246 247 248 247 242 236 233 233 231 231 231 230 229 230 232
103 267 321 285 246 255 248 228 214 234 231 225 208 212 221 224 233 226 224 229 231 236 236 236 240 240 239 242 242 244 242 242 243 246 249 249 251 252 251 245 242 241 239 238 238 238 239 240 241
184 150 343 260 243 236 239 292 244 239 248 261 243 229 234 234 234 239 251 246 246 246 242 239 238 240 242 245 247 245 247 246 245 248 246 250 249 254 256 255 249 248 246 244 243 241 240 241 243
56 81 57 265 218 239 159 260 261 252 242 257 265 263 261 245 244 250 246 254 253 249 249 246 241 242 244 246 249 249 248 249 250 251 251 248 251 253 256 256 254 251 248 247 246 246 245 246 246
340 225 212 312 213 213 199 248 257 252 231 242 276 276 271 263 253 246 245 252 254 257 255 251 247 247 247 249 253 254 255 254 254 256 254 252 252 254 256 259 257 253 249 247 248 249 250 250 252
196 202 246 215 257 145 256 258 276 250 244 268 274 279 274 262 248 252 251 251 256 253 254 253 250 252 252 252 256 258 257 257 259 259 259 257 256 257 257 259 259 257 253 250 249 250 251 254 256
127 132 231 258 261 328 252 271 276 277 273 268 272 273 269 260 248 250 252 239 265 249 247 247 250 250 249 248 250 252 256 258 259 260 261 261 259 260 259 261 261 258 256 256 254 254 253 253 253
222 280 266 280 262 198 297 285 270 279 263 262 264 265 266 266 266 259 261 264 263 264 257 247 248 250 251 252 259 261 265 266 271 269 267 267 265 263 261 261 263 262 260 258 255 252 253 253 251
232 210 222 227 331 329 306 284 250 276 270 262 262 264 266 269 269 263 258 256 260 262 262 258 245 246 250 260 257 253 255 261 267 265 270 273 271 268 266 264 264 266 263 262 261 257 253 253 254
217 201 213 198 351 243 48 286 298 264 269 282 272 265 263 265 267 263 260 254 254 259 262 265 244 244 247 249 252 256 261 265 275 281 283 281 278 276 273 270 268 266 267 264 264 263 259 254 253
221 177 205 175 186 346 197 272 255 279 266 259 264 267 269 270 258 262 260 254 247 248 217 203 213 216 233 243 252 257 259 266 272 273 275 278 279 279 278 277 274 270 268 269 267 266 264 259 256
150 90 49 49 85 271 201 190 247 215 222 260 274 276 262 251 221 195 148 137 134 139 157 174 181 182 220 236 255 261 265 268 270 272 275 277 279 281 281 279 278 277 273 271 271 270 268 266 264
153 122 11 352 265 236 201 197 245 260 253 231 278 242 168 161 155 148 142 139 140 145 144 228 246 261 265 247 246 265 278 283 283 282 280 279 279 279 281 284 283 281 279 278 276 273 271 269 267
188 170 163 200 200 250 130 232 249 237 258 253 270 177 150 148 144 143 138 129 123 278 290 274 267 271 272 268 256 259 270 276 276 281 284 286 286 284 285 285 286 285 284 282 279 276 273 271 269
182 207 165 93 41 61 226 276 299 253 255 200 188 163 154 157 151 140 123 35 82 134 196 288 297 288 288 287 282 275 272 272 275 275 280 282 282 284 286 285 285 285 284 283 280 277 275 274 273
183 144 136 48 220 256 253 260 234 274 238 215 194 184 172 160 148 138 122 136 178 243 289 301 296 293 298 299 301 295 289 285 282 279 278 278 277 277 280 281 280 281 282 281 279 278 276 273 273
148 182 193 160 178 205 253 253 223 226 216 194 202 183 171 159 143 148 169 181 205 256 281 291 294 302 296 298 297 298 294 289 286 287 289 292 292 286 278 277 281 282 281 279 276 275 271 265 265
212 201 184 177 212 233 221 258 250 230 239 199 199 199 172 159 187 189 175 200 244 270 274 293 297 299 305 305 303 301 299 294 291 291 292 295 293 290 288 286 282 279 278 279 275 271 271 268 264
Wind_Speed_850mb
39 38 18 4 8 10 3 6 8 6 3 9 11 17 17 10 2 5 32 36 22 36 36 36 33 28 25 20 16 16 16 20 23 29 30 32 27 25 28 27 28 31 30 29 35 36 34 33 32
43 33 8 6 9 6 6 2 11 8 14 25 24 19 9 4 8 20 39 29 28 38 40 37 34 28 24 19 16 17 17 20 22 27 35 23 33 25 18 21 25 29 28 29 32 34 32 28 28
37 19 7 8 6 8 8 5 10 15 18 10 8 16 6 7 13 38 29 39 32 39 39 36 32 28 25 22 18 16 16 19 24 28 35 31 32 32 19 20 23 27 28 29 30 31 30 27 24
28 7 7 8 2 2 14 12 13 15 9 7 18 12 8 7 27 26 29 35 38 42 40 36 31 28 26 22 19 17 17 19 22 25 34 29 20 27 23 18 23 26 28 28 29 30 29 26 23
16 7 8 6 6 4 4 27 28 10 12 12 10 6 8 23 11 23 33 37 39 44 42 38 31 28 26 24 21 18 18 18 18 22 27 28 23 21 23 19 20 21 25 27 27 28 27 24 19
8 4 9 4 7 2 6 27 24 14 16 16 13 13 9 18 20 24 35 35 33 41 44 40 33 29 27 24 21 19 17 17 17 18 20 27 29 24 20 18 16 17 21 25 26 26 24 22 17
8 6 5 4 5 3 6 23 23 17 18 13 26 9 13 24 19 29 36 32 33 33 40 41 37 33 29 26 22 20 18 19 18 19 19 22 25 23 20 20 18 18 21 24 24 24 22 20 17
5 8 1 3 2 6 4 6 14 18 7 18 14 13 13 36 33 40 37 33 32 32 36 41 39 36 34 31 28 24 22 20 21 21 20 20 20 21 23 22 24 23 23 23 24 24 22 20 18
2 7 4 4 2 5 2 3 8 11 17 8 7 12 7 34 46 49 45 41 38 37 35 44 43 40 37 35 32 28 26 23 22 23 22 21 20 22 23 20 19 24 25 25 25 24 23 22 21
6 7 16 3 0 2 6 1 10 9 10 5 8 12 24 35 47 55 54 52 48 44 41 43 47 45 42 41 38 35 32 29 26 24 22 23 23 23 24 24 23 25 29 29 27 26 26 26 24
8 10 7 2 5 3 4 7 5 13 4 13 16 28 34 34 40 47 50 47 42 40 40 42 46 47 47 47 45 43 40 36 32 29 25 24 28 29 28 29 28 28 31 32 31 30 28 28 28
4 11 8 2 4 5 4 3 2 3 8 8 4 25 34 35 40 44 48 49 46 44 42 41 44 44 47 49 51 49 46 43 40 35 31 31 33 34 31 30 30 30 32 33 32 32 31 32 32
3 5 7 5 2 7 10 9 7 14 15 2 5 27 29 30 35 39 41 43 47 51 46 45 45 47 46 47 47 47 47 46 43 41 38 38 37 38 35 33 34 34 35 36 36 36 37 36 36
2 1 10 7 4 12 10 8 7 9 26 10 20 27 30 32 27 31 41 46 51 50 51 46 49 48 49 51 47 45 45 43 43 44 44 42 42 39 40 38 39 40 39 40 40 41 42 42 42
4 2 9 8 7 10 14 11 20 33 36 38 29 28 38 42 39 42 36 39 41 44 46 52 50 47 51 54 53 51 49 49 48 46 45 45 45 44 42 42 43 43 43 43 46 47 48 49 49
2 5 1 6 11 11 19 16 24 26 30 33 38 46 44 47 55 51 48 46 43 44 46 47 52 55 51 52 56 55 55 54 53 51 49 49 48 48 49 46 46 45 47 49 52 53 54 56 55
7 7 9 11 10 7 13 10 19 25 30 21 21 24 34 41 53 62 59 56 52 48 48 49 51 56 56 55 55 58 58 59 57 58 58 56 54 53 55 55 51 50 52 56 57 59 60 61 60
12 7 8 9 3 3 11 12 19 19 17 30 36 43 42 44 51 51 61 70 71 65 63 56 52 52 53 56 56 58 59 61 63 65 67 65 62 61 61 62 62 58 60 61 62 65 64 67 64
11 6 4 6 2 6 10 10 21 43 32 41 51 61 65 64 61 53 42 34 25 56 73 68 59 54 53 55 59 62 65 63 64 66 68 71 69 68 68 70 70 67 69 70 68 69 71 73 71
5 3 10 9 4 7 10 18 19 41 31 51 64 70 80 79 76 71 55 49 41 28 32 62 67 64 57 53 52 54 55 57 57 63 68 70 73 74 74 76 79 77 77 78 79 78 80 81 78
12 13 8 10 12 5 7 13 12 21 45 51 75 79 74 79 76 72 73 59 43 41 38 41 49 59 57 54 57 60 63 62 61 65 66 66 70 76 79 79 80 84 84 88 88 88 87 91 88
14 14 12 6 3 7 6 11 12 17 22 18 58 60 64 55 54 57 57 58 54 43 32 27 42 59 64 66 67 65 62 61 58 59 57 59 61 67 75 79 82 86 90 93 95 96 95 95 100
10 12 12 7 5 4 6 6 12 10 18 36 54 65 60 58 45 33 32 38 45 45 21 16 13 9 13 26 47 60 72 73 68 68 71 70 70 69 70 73 76 80 88 93 94 99 103 103 105
13 12 13 9 5 7 18 16 8 12 20 13 29 51 36 26 26 14 21 28 31 23 17 13 14 11 12 18 23 34 45 53 62 66 70 70 71 74 76 78 79 81 82 89 93 95 103 106 110
7 15 3 5 0 14 2 13 13 16 23 13 16 14 17 28 40 39 35 27 21 17 9 6 14 18 16 18 20 23 31 39 48 55 63 67 71 73 75 79 83 84 85 86 89 94 102 106 110
21 20 11 15 9 7 7 15 12 22 40 31 23 22 38 42 38 34 28 23 9 4 7 9 14 20 22 24 29 32 36 42 48 50 54 60 68 73 75 79 84 87 88 89 93 98 104 108 116
10 21 13 8 5 4 9 14 18 18 15 15 33 42 42 35 38 36 19 8 6 5 4 9 16 23 29 31 34 38 40 42 44 49 55 64 70 75 80 87 92 91 91 93 95 100 103 107 106
12 16 6 4 3 8 11 11 15 2 15 11 21 37 39 44 39 22 7 10 5 4 10 20 24 21 25 28 30 35 40 43 47 51 56 62 68 74 78 80 83 86 89 94 101 106 109 112 115
10 10 8 11 10 9 4 12 15 29 15 17 15 36 43 40 23 9 14 17 11 12 17 19 21 22 25 30 34 37 38 41 43 49 52 55 59 63 71 75 82 87 88 93 100 108 108 109 114
27 13 20 10 8 8 2 21 10 16 18 31 44 45 41 29 5 12 20 14 14 17 20 24 23 27 30 35 39 43 47 51 55 56 57 59 61 62 64 67 77 85 96 96 92 103 113 116 115
Wind_Direction_850mb
339 338 341 79 59 66 164 186 155 140 70 109 74 101 119 83 106 196 142 162 174 172 164 161 161 160 157 149 143 137 138 141 133 121 120 124 135 120 116 110 116 112 117 111 110 118 110 108 104
337 337 4 75 84 71 276 272 144 177 147 115 106 110 53 111 136 149 155 167 176 172 165 166 166 163 161 157 154 148 149 149 142 130 126 131 122 116 117 119 115 118 117 114 115 118 118 116 104
331 347 16 85 110 162 170 185 163 133 134 125 99 98 97 134 165 157 168 167 175 174 170 169 169 170 168 168 163 158 153 155 149 139 145 141 139 138 132 131 129 126 124 123 122 127 129 124 113
334 358 50 76 341 257 156 171 166 126 119 113 126 69 86 186 155 173 168 173 172 174 172 175 173 175 174 173 168 166 164 164 160 149 151 141 142 144 148 144 139 137 134 131 132 135 138 136 132
341 17 43 55 337 5 79 163 152 136 145 131 139 151 99 148 159 187 179 176 177 176 176 179 181 181 179 178 173 174 172 169 161 160 153 143 158 153 160 155 144 141 142 139 139 141 145 144 141
21 35 58 30 320 244 166 167 150 143 151 145 112 114 163 178 188 189 185 179 180 182 181 184 186 188 187 183 182 183 183 172 173 168 164 155 159 171 177 191 182 159 154 149 149 151 153 153 148
99 73 167 232 252 247 197 166 152 159 155 164 154 100 160 173 189 193 190 187 184 190 191 191 191 192 194 194 193 194 195 190 186 179 182 178 178 172 176 184 189 179 172 163 160 162 164 162 161
104 97 232 247 291 246 221 114 128 152 172 134 167 169 189 186 182 186 191 198 200 199 204 202 199 200 200 201 203 204 209 206 204 200 197 194 194 195 186 192 192 187 182 176 172 173 175 175 179
149 72 197 245 293 274 316 117 93 113 134 128 138 163 189 170 175 182 190 201 209 211 208 209 208 208 210 212 213 216 220 220 212 212 215 212 208 206 212 214 200 193 189 188 185 184 187 188 194
115 139 209 232 152 27 10 306 131 141 132 80 144 158 157 168 179 189 197 202 209 211 209 212 212 214 216 218 220 225 229 231 225 220 225 226 220 220 218 222 222 206 203 196 196 198 200 200 205
173 185 211 289 127 7 29 18 337 135 89 194 211 173 172 180 190 199 205 214 219 216 216 218 217 220 223 225 225 226 230 235 235 234 236 238 232 229 224 221 223 219 212 209 205 209 211 212 213
209 234 250 336 258 172 174 308 345 310 139 106 35 200 181 193 204 207 212 217 222 227 229 227 224 224 228 231 234 233 232 235 239 242 244 244 242 237 232 228 228 226 224 222 220 220 219 222 222
205 267 251 249 221 259 195 192 242 253 184 198 176 191 200 207 215 219 224 227 229 231 235 237 235 232 231 235 237 234 234 236 241 245 246 247 248 247 242 236 233 233 231 231 231 230 229 230 232
103 267 321 285 246 255 248 228 214 234 231 225 208 212 221 224 233 226 224 229 231 236 236 236 240 240 239 242 242 244 242 242 243 246 249 249 251 252 251 245 242 241 239 238 238 238 239 240 241
184 150 343 260 243 236 239 292 244 239 248 261 243 229 234 234 234 239 251 246 246 246 242 239 238 240 242 245 247 245 247 246 245 248 246 250 249 254 256 255 249 248 246 244 243 241 240 241 243
56 81 57 265 218 239 159 260 261 252 242 257 265 263 261 245 244 250 246 254 253 249 249 246 241 242 244 246 249 249 248 249 250 251 251 248 251 253 256 256 254 251 248 247 246 246 245 246 246
340 225 212 312 213 213 199 248 257 252 231 242 276 276 271 263 253 246 245 252 254 257 255 251 247 247 247 249 253 254 255 254 254 256 254 252 252 254 256 259 257 253 249 247 248 249 250 250 252
196 202 246 215 257 145 256 258 276 250 244 268 274 279 274 262 248 252 251 251 256 253 254 253 250 252 252 252 256 258 257 257 259 259 259 257 256 257 257 259 259 257 253 250 249 250 251 254 256
127 132 231 258 261 328 252 271 276 277 273 268 272 273 269 260 248 250 252 239 265 249 247 247 250 250 249 248 250 252 256 258 259 260 261 261 259 260 259 261 261 258 256 256 254 254 253 253 253
222 280 266 280 262 198 297 285 270 279 263 262 264 265 266 266 266 259 261 264 263 264 257 247 248 250 251 252 259 261 265 266 271 269 267 267 265 263 261 261 263 262 260 258 255 252 253 253 251
232 210 222 227 331 329 306 284 250 276 270 262 262 264 266 269 269 263 258 256 260 262 262 258 245 246 250 260 257 253 255 261 267 265 270 273 271 268 266 264 264 266 263 262 261 257 253 253 254
217 201 213 198 351 243 48 286 298 264 269 282 272 265 263 265 267 263 260 254 254 259 262 265 244 244 247 249 252 256 261 265 275 281 283 281 278 276 273 270 268 266 267 264 264 263 259 254 253
221 177 205 175 186 346 197 272 255 279 266 259 264 267 269 270 258 262 260 254 247 248 217 203 213 216 233 243 252 257 259 266 272 273 275 278 279 279 278 277 274 270 268 269 267 266 264 259 256
150 90 49 49 85 271 201 190 247 215 222 260 274 276 262 251 221 195 148 137 134 139 157 174 181 182 220 236 255 261 265 268 270 272 275 277 279 281 281 279 278 277 273 271 271 270 268 266 264
153 122 11 352 265 236 201 197 245 260 253 231 278 242 168 161 155 148 142 139 140 145 144 228 246 261 265 247 246 265 278 283 283 282 280 279 279 279 281 284 283 281 279 278 276 273 271 269 267
188 170 163 200 200 250 130 232 249 237 258 253 270 177 150 148 144 143 138 129 123 278 290 274 267 271 272 268 256 259 270 276 276 281 284 286 286 284 285 285 286 285 284 282 279 276 273 271 269
182 207 165 93 41 61 226 276 299 253 255 200 188 163 154 157 151 140 123 35 82 134 196 288 297 288 288 287 282 275 272 272 275 275 280 282 282 284 286 285 285 285 284 283 280 277 275 274 273
183 144 136 48 220 256 253 260 234 274 238 215 194 184 172 160 148 138 122 136 178 243 289 301 296 293 298 299 301 295 289 285 282 279 278 278 277 277 280 281 280 281 282 281 279 278 276 273 273
148 182 193 160 178 205 253 253 223 226 216 194 202 183 171 159 143 148 169 181 205 256 281 291 294 302 296 298 297 298 294 289 286 287 289 292 292 286 278 277 281 282 281 279 276 275 271 265 265
212 201 184 177 212 233 221 258 250 230 239 199 199 199 172 159 187 189 175 200 244 270 274 293 297 299 305 305 303 301 299 294 291 291 292 295 293 290 288 286 282 279 278 279 275 271 271 268 264